owner,sensor,date,latitude,longitude,air_temperature,qcFlag 
COMPS,ioos:station:USF.COMPS:C10:1,2009-12-01T00:20:00Z,27.1690,-82.9260,20.7,1111122 
COMPS,ioos:station:USF.COMPS:C10:1,2009-12-01T00:40:00Z,27.1690,-82.9260,20.64,1111122 
COMPS,ioos:station:USF.COMPS:C10:1,2009-12-01T01:00:00Z,27.1690,-82.9260,20.67,1111122 
COMPS,ioos:station:USF.COMPS:C10:1,2009-12-01T01:20:00Z,27.1690,-82.9260,20.58,1111122 
COMPS,ioos:station:USF.COMPS:C10:1,2009-12-01T01:40:00Z,27.1690,-82.9260,20.6,1111122 
COMPS,ioos:station:USF.COMPS:C10:1,2009-12-01T02:00:00Z,27.1690,-82.9260,20.57,1111122 
COMPS,ioos:station:USF.COMPS:C10:1,2009-12-01T02:20:00Z,27.1690,-82.9260,20.49,1111122 
COMPS,ioos:station:USF.COMPS:C10:1,2009-12-01T02:40:00Z,27.1690,-82.9260,20.55,1111122 
COMPS,ioos:station:USF.COMPS:C10:1,2009-12-01T03:00:00Z,27.1690,-82.9260,20.63,1111122 
COMPS,ioos:station:USF.COMPS:C10:1,2009-12-01T03:20:00Z,27.1690,-82.9260,20.64,1111122 
COMPS,ioos:station:USF.COMPS:C10:1,2009-12-01T03:40:00Z,27.1690,-82.9260,20.6,1111122 
COMPS,ioos:station:USF.COMPS:C10:1,2009-12-01T04:00:00Z,27.1690,-82.9260,20.53,1111122 
COMPS,ioos:station:USF.COMPS:C10:1,2009-12-01T04:20:00Z,27.1690,-82.9260,20.55,1111122 
COMPS,ioos:station:USF.COMPS:C10:1,2009-12-01T04:40:00Z,27.1690,-82.9260,20.57,1111122 
COMPS,ioos:station:USF.COMPS:C10:1,2009-12-01T05:00:00Z,27.1690,-82.9260,20.57,1111122 
COMPS,ioos:station:USF.COMPS:C10:1,2009-12-01T05:20:00Z,27.1690,-82.9260,20.59,1111122 
COMPS,ioos:station:USF.COMPS:C10:1,2009-12-01T05:40:00Z,27.1690,-82.9260,20.56,1111122 
COMPS,ioos:station:USF.COMPS:C10:1,2009-12-01T06:00:00Z,27.1690,-82.9260,20.53,1111122 
COMPS,ioos:station:USF.COMPS:C10:1,2009-12-01T06:20:00Z,27.1690,-82.9260,20.56,1111122 
COMPS,ioos:station:USF.COMPS:C10:1,2009-12-01T06:40:00Z,27.1690,-82.9260,20.57,1111122 
COMPS,ioos:station:USF.COMPS:C10:1,2009-12-01T07:00:00Z,27.1690,-82.9260,20.59,1111122 
COMPS,ioos:station:USF.COMPS:C10:1,2009-12-01T07:20:00Z,27.1690,-82.9260,20.59,1111122 
COMPS,ioos:station:USF.COMPS:C10:1,2009-12-01T07:40:00Z,27.1690,-82.9260,20.55,1111122 
COMPS,ioos:station:USF.COMPS:C10:1,2009-12-01T08:00:00Z,27.1690,-82.9260,20.52,1111122 
COMPS,ioos:station:USF.COMPS:C10:1,2009-12-01T08:20:00Z,27.1690,-82.9260,20.49,1111122 
COMPS,ioos:station:USF.COMPS:C10:1,2009-12-01T08:40:00Z,27.1690,-82.9260,20.34,1111122 
COMPS,ioos:station:USF.COMPS:C10:1,2009-12-01T09:00:00Z,27.1690,-82.9260,20.35,1111122 
COMPS,ioos:station:USF.COMPS:C10:1,2009-12-01T09:20:00Z,27.1690,-82.9260,20.3,1111122 
COMPS,ioos:station:USF.COMPS:C10:1,2009-12-01T09:40:00Z,27.1690,-82.9260,20.38,1111122 
COMPS,ioos:station:USF.COMPS:C10:1,2009-12-01T10:00:00Z,27.1690,-82.9260,20.37,1111122 
COMPS,ioos:station:USF.COMPS:C10:1,2009-12-01T10:20:00Z,27.1690,-82.9260,20.31,1111122 
COMPS,ioos:station:USF.COMPS:C10:1,2009-12-01T10:40:00Z,27.1690,-82.9260,20.32,1111122 
COMPS,ioos:station:USF.COMPS:C10:1,2009-12-01T11:00:00Z,27.1690,-82.9260,20.3,1111122 
COMPS,ioos:station:USF.COMPS:C10:1,2009-12-01T11:20:00Z,27.1690,-82.9260,20.29,1111122 
COMPS,ioos:station:USF.COMPS:C10:1,2009-12-01T11:40:00Z,27.1690,-82.9260,20.15,1111122 
COMPS,ioos:station:USF.COMPS:C10:1,2009-12-01T12:00:00Z,27.1690,-82.9260,20.09,1111122 
COMPS,ioos:station:USF.COMPS:C10:1,2009-12-01T12:20:00Z,27.1690,-82.9260,20.07,1111122 
COMPS,ioos:station:USF.COMPS:C10:1,2009-12-01T12:40:00Z,27.1690,-82.9260,20.05,1111122 
COMPS,ioos:station:USF.COMPS:C10:1,2009-12-01T13:00:00Z,27.1690,-82.9260,20.22,1111122 
COMPS,ioos:station:USF.COMPS:C10:1,2009-12-01T13:20:00Z,27.1690,-82.9260,20.18,1111122 
COMPS,ioos:station:USF.COMPS:C10:1,2009-12-01T13:40:00Z,27.1690,-82.9260,20.27,1111122 
COMPS,ioos:station:USF.COMPS:C10:1,2009-12-01T14:00:00Z,27.1690,-82.9260,20.24,1111122 
COMPS,ioos:station:USF.COMPS:C10:1,2009-12-01T14:20:00Z,27.1690,-82.9260,20.31,1111122 
COMPS,ioos:station:USF.COMPS:C10:1,2009-12-01T14:40:00Z,27.1690,-82.9260,20.27,1111122 
COMPS,ioos:station:USF.COMPS:C10:1,2009-12-01T15:00:00Z,27.1690,-82.9260,20.25,1111122 
COMPS,ioos:station:USF.COMPS:C10:1,2009-12-01T15:20:00Z,27.1690,-82.9260,20.35,1111122 
COMPS,ioos:station:USF.COMPS:C10:1,2009-12-01T15:40:00Z,27.1690,-82.9260,20.18,1111122 
COMPS,ioos:station:USF.COMPS:C10:1,2009-12-01T16:00:00Z,27.1690,-82.9260,20.24,1111122 
COMPS,ioos:station:USF.COMPS:C10:1,2009-12-01T16:20:00Z,27.1690,-82.9260,20.32,1111122 
COMPS,ioos:station:USF.COMPS:C10:1,2009-12-01T16:40:00Z,27.1690,-82.9260,20.41,1111122 
COMPS,ioos:station:USF.COMPS:C10:1,2009-12-01T17:00:00Z,27.1690,-82.9260,20.37,1111122 
COMPS,ioos:station:USF.COMPS:C10:1,2009-12-01T17:20:00Z,27.1690,-82.9260,20.49,1111122 
COMPS,ioos:station:USF.COMPS:C10:1,2009-12-01T17:40:00Z,27.1690,-82.9260,20.61,1111122 
COMPS,ioos:station:USF.COMPS:C10:1,2009-12-01T18:00:00Z,27.1690,-82.9260,20.81,1111122 
COMPS,ioos:station:USF.COMPS:C10:1,2009-12-01T18:20:00Z,27.1690,-82.9260,21.06,1111122 
COMPS,ioos:station:USF.COMPS:C10:1,2009-12-01T18:40:00Z,27.1690,-82.9260,21.11,1111122 
COMPS,ioos:station:USF.COMPS:C10:1,2009-12-01T19:00:00Z,27.1690,-82.9260,21.21,1111122 
COMPS,ioos:station:USF.COMPS:C10:1,2009-12-01T19:20:00Z,27.1690,-82.9260,21.29,1111122 
COMPS,ioos:station:USF.COMPS:C10:1,2009-12-01T19:40:00Z,27.1690,-82.9260,21.39,1111122 
COMPS,ioos:station:USF.COMPS:C10:1,2009-12-01T20:00:00Z,27.1690,-82.9260,21.44,1111122 
COMPS,ioos:station:USF.COMPS:C10:1,2009-12-01T20:20:00Z,27.1690,-82.9260,21.45,1111122 
COMPS,ioos:station:USF.COMPS:C10:1,2009-12-01T20:40:00Z,27.1690,-82.9260,21.41,1111122 
COMPS,ioos:station:USF.COMPS:C10:1,2009-12-01T21:00:00Z,27.1690,-82.9260,21.51,1111122 
COMPS,ioos:station:USF.COMPS:C10:1,2009-12-01T21:20:00Z,27.1690,-82.9260,21.46,1111122 
COMPS,ioos:station:USF.COMPS:C10:1,2009-12-01T21:40:00Z,27.1690,-82.9260,21.46,1111122 
COMPS,ioos:station:USF.COMPS:C10:1,2009-12-01T22:00:00Z,27.1690,-82.9260,21.54,1111122 
COMPS,ioos:station:USF.COMPS:C10:1,2009-12-02T00:20:00Z,27.1690,-82.9260,21.22,1111122 
COMPS,ioos:station:USF.COMPS:C10:1,2009-12-02T00:40:00Z,27.1690,-82.9260,21.13,1111122 
COMPS,ioos:station:USF.COMPS:C10:1,2009-12-02T01:00:00Z,27.1690,-82.9260,21.12,1111122 
COMPS,ioos:station:USF.COMPS:C10:1,2009-12-02T01:20:00Z,27.1690,-82.9260,21.1,1111122 
COMPS,ioos:station:USF.COMPS:C10:1,2009-12-02T01:40:00Z,27.1690,-82.9260,21.05,1111122 
COMPS,ioos:station:USF.COMPS:C10:1,2009-12-02T02:00:00Z,27.1690,-82.9260,21.18,1111122 
COMPS,ioos:station:USF.COMPS:C10:1,2009-12-02T02:20:00Z,27.1690,-82.9260,21.18,1111122 
COMPS,ioos:station:USF.COMPS:C10:1,2009-12-02T02:40:00Z,27.1690,-82.9260,21.14,1111122 
COMPS,ioos:station:USF.COMPS:C10:1,2009-12-02T03:00:00Z,27.1690,-82.9260,21.0,1111122 
COMPS,ioos:station:USF.COMPS:C10:1,2009-12-02T03:20:00Z,27.1690,-82.9260,21.11,1111122 
COMPS,ioos:station:USF.COMPS:C10:1,2009-12-02T03:40:00Z,27.1690,-82.9260,20.96,1111122 
COMPS,ioos:station:USF.COMPS:C10:1,2009-12-02T04:00:00Z,27.1690,-82.9260,21.05,1111122 
COMPS,ioos:station:USF.COMPS:C10:1,2009-12-02T04:20:00Z,27.1690,-82.9260,21.1,1111122 
COMPS,ioos:station:USF.COMPS:C10:1,2009-12-02T04:40:00Z,27.1690,-82.9260,21.05,1111122 
COMPS,ioos:station:USF.COMPS:C10:1,2009-12-02T05:00:00Z,27.1690,-82.9260,21.15,1111122 
COMPS,ioos:station:USF.COMPS:C10:1,2009-12-02T05:20:00Z,27.1690,-82.9260,21.16,1111122 
COMPS,ioos:station:USF.COMPS:C10:1,2009-12-02T05:40:00Z,27.1690,-82.9260,21.21,1111122 
COMPS,ioos:station:USF.COMPS:C10:1,2009-12-02T06:00:00Z,27.1690,-82.9260,21.17,1111122 
COMPS,ioos:station:USF.COMPS:C10:1,2009-12-02T06:20:00Z,27.1690,-82.9260,21.16,1111122 
COMPS,ioos:station:USF.COMPS:C10:1,2009-12-02T06:40:00Z,27.1690,-82.9260,21.21,1111122 
COMPS,ioos:station:USF.COMPS:C10:1,2009-12-02T07:00:00Z,27.1690,-82.9260,21.23,1111122 
COMPS,ioos:station:USF.COMPS:C10:1,2009-12-02T07:20:00Z,27.1690,-82.9260,21.16,1111122 
COMPS,ioos:station:USF.COMPS:C10:1,2009-12-02T07:40:00Z,27.1690,-82.9260,20.97,1111122 
COMPS,ioos:station:USF.COMPS:C10:1,2009-12-02T08:00:00Z,27.1690,-82.9260,21.01,1111122 
COMPS,ioos:station:USF.COMPS:C10:1,2009-12-02T08:20:00Z,27.1690,-82.9260,21.04,1111122 
COMPS,ioos:station:USF.COMPS:C10:1,2009-12-02T08:40:00Z,27.1690,-82.9260,21.02,1111122 
COMPS,ioos:station:USF.COMPS:C10:1,2009-12-02T09:00:00Z,27.1690,-82.9260,21.04,1111122 
COMPS,ioos:station:USF.COMPS:C10:1,2009-12-02T09:20:00Z,27.1690,-82.9260,21.13,1111122 
COMPS,ioos:station:USF.COMPS:C10:1,2009-12-02T09:40:00Z,27.1690,-82.9260,21.18,1111122 
COMPS,ioos:station:USF.COMPS:C10:1,2009-12-02T10:00:00Z,27.1690,-82.9260,21.18,1111122 
COMPS,ioos:station:USF.COMPS:C10:1,2009-12-02T10:20:00Z,27.1690,-82.9260,21.39,1111122 
COMPS,ioos:station:USF.COMPS:C10:1,2009-12-02T10:40:00Z,27.1690,-82.9260,21.42,1111122 
COMPS,ioos:station:USF.COMPS:C10:1,2009-12-02T11:00:00Z,27.1690,-82.9260,21.42,1111122 
COMPS,ioos:station:USF.COMPS:C10:1,2009-12-02T11:20:00Z,27.1690,-82.9260,21.2,1111122 
COMPS,ioos:station:USF.COMPS:C10:1,2009-12-02T11:40:00Z,27.1690,-82.9260,21.42,1111122 
COMPS,ioos:station:USF.COMPS:C10:1,2009-12-02T12:00:00Z,27.1690,-82.9260,21.41,1111122 
COMPS,ioos:station:USF.COMPS:C10:1,2009-12-02T12:20:00Z,27.1690,-82.9260,21.43,1111122 
COMPS,ioos:station:USF.COMPS:C10:1,2009-12-02T12:40:00Z,27.1690,-82.9260,21.45,1111122 
COMPS,ioos:station:USF.COMPS:C10:1,2009-12-02T13:00:00Z,27.1690,-82.9260,21.5,1111122 
COMPS,ioos:station:USF.COMPS:C10:1,2009-12-02T15:20:00Z,27.1690,-82.9260,21.7,1111122 
COMPS,ioos:station:USF.COMPS:C10:1,2009-12-02T15:40:00Z,27.1690,-82.9260,21.75,1111122 
COMPS,ioos:station:USF.COMPS:C10:1,2009-12-02T17:00:00Z,27.1690,-82.9260,21.75,1111122 
COMPS,ioos:station:USF.COMPS:C10:1,2009-12-02T19:20:00Z,27.1690,-82.9260,22.24,1111122 
COMPS,ioos:station:USF.COMPS:C10:1,2009-12-02T19:40:00Z,27.1690,-82.9260,22.21,1111122 
COMPS,ioos:station:USF.COMPS:C10:1,2009-12-02T20:00:00Z,27.1690,-82.9260,22.18,1111122 
COMPS,ioos:station:USF.COMPS:C10:1,2009-12-02T21:20:00Z,27.1690,-82.9260,22.05,1111122 
COMPS,ioos:station:USF.COMPS:C10:1,2009-12-02T21:40:00Z,27.1690,-82.9260,22.14,1111122 
COMPS,ioos:station:USF.COMPS:C10:1,2009-12-02T22:00:00Z,27.1690,-82.9260,22.23,1111122 
COMPS,ioos:station:USF.COMPS:C10:1,2009-12-03T03:20:00Z,27.1690,-82.9260,22.38,1111122 
COMPS,ioos:station:USF.COMPS:C10:1,2009-12-03T03:40:00Z,27.1690,-82.9260,22.41,1111122 
COMPS,ioos:station:USF.COMPS:C10:1,2009-12-03T04:00:00Z,27.1690,-82.9260,22.4,1111122 
COMPS,ioos:station:USF.COMPS:C10:1,2009-12-03T04:20:00Z,27.1690,-82.9260,20.58,1111122 
COMPS,ioos:station:USF.COMPS:C10:1,2009-12-03T04:40:00Z,27.1690,-82.9260,20.46,1111122 
COMPS,ioos:station:USF.COMPS:C10:1,2009-12-03T05:00:00Z,27.1690,-82.9260,20.4,1111122 
COMPS,ioos:station:USF.COMPS:C10:1,2009-12-03T05:20:00Z,27.1690,-82.9260,20.51,1111122 
COMPS,ioos:station:USF.COMPS:C10:1,2009-12-03T05:40:00Z,27.1690,-82.9260,20.85,1111122 
COMPS,ioos:station:USF.COMPS:C10:1,2009-12-03T06:00:00Z,27.1690,-82.9260,21.03,1111122 
COMPS,ioos:station:USF.COMPS:C10:1,2009-12-03T06:20:00Z,27.1690,-82.9260,21.29,1111122 
COMPS,ioos:station:USF.COMPS:C10:1,2009-12-03T06:40:00Z,27.1690,-82.9260,21.32,1111122 
COMPS,ioos:station:USF.COMPS:C10:1,2009-12-03T07:00:00Z,27.1690,-82.9260,21.42,1111122 
COMPS,ioos:station:USF.COMPS:C10:1,2009-12-03T07:20:00Z,27.1690,-82.9260,21.46,1111122 
COMPS,ioos:station:USF.COMPS:C10:1,2009-12-03T07:40:00Z,27.1690,-82.9260,21.48,1111122 
COMPS,ioos:station:USF.COMPS:C10:1,2009-12-03T08:00:00Z,27.1690,-82.9260,21.4,1111122 
COMPS,ioos:station:USF.COMPS:C10:1,2009-12-03T08:20:00Z,27.1690,-82.9260,20.18,1111122 
COMPS,ioos:station:USF.COMPS:C10:1,2009-12-03T08:40:00Z,27.1690,-82.9260,20.37,1111122 
COMPS,ioos:station:USF.COMPS:C10:1,2009-12-03T09:00:00Z,27.1690,-82.9260,20.59,1111122 
COMPS,ioos:station:USF.COMPS:C10:1,2009-12-03T09:20:00Z,27.1690,-82.9260,20.69,1111122 
COMPS,ioos:station:USF.COMPS:C10:1,2009-12-03T09:40:00Z,27.1690,-82.9260,20.7,1111122 
COMPS,ioos:station:USF.COMPS:C10:1,2009-12-03T10:00:00Z,27.1690,-82.9260,20.76,1111122 
COMPS,ioos:station:USF.COMPS:C10:1,2009-12-03T10:20:00Z,27.1690,-82.9260,21.02,1111122 
COMPS,ioos:station:USF.COMPS:C10:1,2009-12-03T10:40:00Z,27.1690,-82.9260,21.02,1111122 
COMPS,ioos:station:USF.COMPS:C10:1,2009-12-03T11:00:00Z,27.1690,-82.9260,21.02,1111122 
COMPS,ioos:station:USF.COMPS:C10:1,2009-12-03T11:20:00Z,27.1690,-82.9260,21.12,1111122 
COMPS,ioos:station:USF.COMPS:C10:1,2009-12-03T11:40:00Z,27.1690,-82.9260,21.11,1111122 
COMPS,ioos:station:USF.COMPS:C10:1,2009-12-03T12:00:00Z,27.1690,-82.9260,21.01,1111122 
COMPS,ioos:station:USF.COMPS:C10:1,2009-12-03T12:20:00Z,27.1690,-82.9260,21.0,1111122 
COMPS,ioos:station:USF.COMPS:C10:1,2009-12-03T12:40:00Z,27.1690,-82.9260,21.06,1111122 
COMPS,ioos:station:USF.COMPS:C10:1,2009-12-03T13:00:00Z,27.1690,-82.9260,21.1,1111122 
COMPS,ioos:station:USF.COMPS:C10:1,2009-12-03T13:20:00Z,27.1690,-82.9260,21.05,1111122 
COMPS,ioos:station:USF.COMPS:C10:1,2009-12-03T13:40:00Z,27.1690,-82.9260,21.13,1111122 
COMPS,ioos:station:USF.COMPS:C10:1,2009-12-03T14:00:00Z,27.1690,-82.9260,21.26,1111122 
COMPS,ioos:station:USF.COMPS:C10:1,2009-12-03T14:20:00Z,27.1690,-82.9260,21.21,1111122 
COMPS,ioos:station:USF.COMPS:C10:1,2009-12-03T14:40:00Z,27.1690,-82.9260,21.32,1111122 
COMPS,ioos:station:USF.COMPS:C10:1,2009-12-03T15:00:00Z,27.1690,-82.9260,21.35,1111122 
COMPS,ioos:station:USF.COMPS:C10:1,2009-12-03T15:20:00Z,27.1690,-82.9260,21.5,1111122 
COMPS,ioos:station:USF.COMPS:C10:1,2009-12-03T15:40:00Z,27.1690,-82.9260,21.5,1111122 
COMPS,ioos:station:USF.COMPS:C10:1,2009-12-03T16:00:00Z,27.1690,-82.9260,21.54,1111122 
COMPS,ioos:station:USF.COMPS:C10:1,2009-12-03T16:20:00Z,27.1690,-82.9260,21.45,1111122 
COMPS,ioos:station:USF.COMPS:C10:1,2009-12-03T16:40:00Z,27.1690,-82.9260,21.39,1111122 
COMPS,ioos:station:USF.COMPS:C10:1,2009-12-03T17:00:00Z,27.1690,-82.9260,21.33,1111122 
COMPS,ioos:station:USF.COMPS:C10:1,2009-12-03T17:20:00Z,27.1690,-82.9260,21.29,1111122 
COMPS,ioos:station:USF.COMPS:C10:1,2009-12-03T17:40:00Z,27.1690,-82.9260,21.26,1111122 
COMPS,ioos:station:USF.COMPS:C10:1,2009-12-03T18:00:00Z,27.1690,-82.9260,21.07,1111122 
COMPS,ioos:station:USF.COMPS:C10:1,2009-12-03T18:20:00Z,27.1690,-82.9260,20.63,1111122 
COMPS,ioos:station:USF.COMPS:C10:1,2009-12-03T18:40:00Z,27.1690,-82.9260,20.53,1111122 
COMPS,ioos:station:USF.COMPS:C10:1,2009-12-03T19:00:00Z,27.1690,-82.9260,20.1,1111122 
COMPS,ioos:station:USF.COMPS:C10:1,2009-12-03T19:20:00Z,27.1690,-82.9260,20.0,1111122 
COMPS,ioos:station:USF.COMPS:C10:1,2009-12-03T19:40:00Z,27.1690,-82.9260,19.98,1111122 
COMPS,ioos:station:USF.COMPS:C10:1,2009-12-03T20:00:00Z,27.1690,-82.9260,19.95,1111122 
COMPS,ioos:station:USF.COMPS:C10:1,2009-12-03T20:20:00Z,27.1690,-82.9260,19.99,1111122 
COMPS,ioos:station:USF.COMPS:C10:1,2009-12-03T20:40:00Z,27.1690,-82.9260,20.03,1111122 
COMPS,ioos:station:USF.COMPS:C10:1,2009-12-03T21:00:00Z,27.1690,-82.9260,19.91,1111122 
COMPS,ioos:station:USF.COMPS:C10:1,2009-12-03T21:20:00Z,27.1690,-82.9260,19.96,1111122 
COMPS,ioos:station:USF.COMPS:C10:1,2009-12-03T21:40:00Z,27.1690,-82.9260,20.0,1111122 
COMPS,ioos:station:USF.COMPS:C10:1,2009-12-03T22:00:00Z,27.1690,-82.9260,19.99,1111122 
COMPS,ioos:station:USF.COMPS:C10:1,2009-12-03T22:20:00Z,27.1690,-82.9260,19.99,1111122 
COMPS,ioos:station:USF.COMPS:C10:1,2009-12-03T22:40:00Z,27.1690,-82.9260,19.97,1111122 
COMPS,ioos:station:USF.COMPS:C10:1,2009-12-03T23:00:00Z,27.1690,-82.9260,19.1,1111122 
COMPS,ioos:station:USF.COMPS:C10:1,2009-12-03T23:20:00Z,27.1690,-82.9260,18.89,1111122 
COMPS,ioos:station:USF.COMPS:C10:1,2009-12-03T23:40:00Z,27.1690,-82.9260,18.72,1111122 
COMPS,ioos:station:USF.COMPS:C10:1,2009-12-04T00:00:00Z,27.1690,-82.9260,18.65,1111122 
COMPS,ioos:station:USF.COMPS:C10:1,2009-12-04T00:20:00Z,27.1690,-82.9260,18.49,1111122 
COMPS,ioos:station:USF.COMPS:C10:1,2009-12-04T00:40:00Z,27.1690,-82.9260,18.44,1111122 
COMPS,ioos:station:USF.COMPS:C10:1,2009-12-04T01:00:00Z,27.1690,-82.9260,18.3,1111122 
COMPS,ioos:station:USF.COMPS:C10:1,2009-12-04T01:20:00Z,27.1690,-82.9260,18.18,1111122 
COMPS,ioos:station:USF.COMPS:C10:1,2009-12-04T01:40:00Z,27.1690,-82.9260,18.18,1111122 
COMPS,ioos:station:USF.COMPS:C10:1,2009-12-04T02:00:00Z,27.1690,-82.9260,18.08,1111122 
COMPS,ioos:station:USF.COMPS:C10:1,2009-12-04T02:20:00Z,27.1690,-82.9260,18.05,1111122 
COMPS,ioos:station:USF.COMPS:C10:1,2009-12-04T02:40:00Z,27.1690,-82.9260,17.94,1111122 
COMPS,ioos:station:USF.COMPS:C10:1,2009-12-04T03:00:00Z,27.1690,-82.9260,17.93,1111122 
COMPS,ioos:station:USF.COMPS:C10:1,2009-12-04T03:20:00Z,27.1690,-82.9260,17.85,1111122 
COMPS,ioos:station:USF.COMPS:C10:1,2009-12-04T03:40:00Z,27.1690,-82.9260,17.69,1111122 
COMPS,ioos:station:USF.COMPS:C10:1,2009-12-04T04:00:00Z,27.1690,-82.9260,17.61,1111122 
COMPS,ioos:station:USF.COMPS:C10:1,2009-12-04T04:20:00Z,27.1690,-82.9260,17.62,1111122 
COMPS,ioos:station:USF.COMPS:C10:1,2009-12-04T04:40:00Z,27.1690,-82.9260,17.51,1111122 
COMPS,ioos:station:USF.COMPS:C10:1,2009-12-04T05:00:00Z,27.1690,-82.9260,17.57,1111122 
COMPS,ioos:station:USF.COMPS:C10:1,2009-12-04T05:20:00Z,27.1690,-82.9260,17.37,1111122 
COMPS,ioos:station:USF.COMPS:C10:1,2009-12-04T05:40:00Z,27.1690,-82.9260,17.38,1111122 
COMPS,ioos:station:USF.COMPS:C10:1,2009-12-04T06:00:00Z,27.1690,-82.9260,17.37,1111122 
COMPS,ioos:station:USF.COMPS:C10:1,2009-12-04T06:20:00Z,27.1690,-82.9260,17.22,1111122 
COMPS,ioos:station:USF.COMPS:C10:1,2009-12-04T06:40:00Z,27.1690,-82.9260,17.05,1111122 
COMPS,ioos:station:USF.COMPS:C10:1,2009-12-04T07:00:00Z,27.1690,-82.9260,17.24,1111122 
COMPS,ioos:station:USF.COMPS:C10:1,2009-12-04T07:20:00Z,27.1690,-82.9260,17.28,1111122 
COMPS,ioos:station:USF.COMPS:C10:1,2009-12-04T07:40:00Z,27.1690,-82.9260,17.36,1111122 
COMPS,ioos:station:USF.COMPS:C10:1,2009-12-04T08:00:00Z,27.1690,-82.9260,17.19,1111122 
COMPS,ioos:station:USF.COMPS:C10:1,2009-12-04T08:20:00Z,27.1690,-82.9260,17.19,1111122 
COMPS,ioos:station:USF.COMPS:C10:1,2009-12-04T08:40:00Z,27.1690,-82.9260,17.48,1111122 
COMPS,ioos:station:USF.COMPS:C10:1,2009-12-04T09:00:00Z,27.1690,-82.9260,17.38,1111122 
COMPS,ioos:station:USF.COMPS:C10:1,2009-12-04T09:20:00Z,27.1690,-82.9260,17.48,1111122 
COMPS,ioos:station:USF.COMPS:C10:1,2009-12-04T09:40:00Z,27.1690,-82.9260,17.45,1111122 
COMPS,ioos:station:USF.COMPS:C10:1,2009-12-04T10:00:00Z,27.1690,-82.9260,17.53,1111122 
COMPS,ioos:station:USF.COMPS:C10:1,2009-12-04T10:20:00Z,27.1690,-82.9260,17.44,1111122 
COMPS,ioos:station:USF.COMPS:C10:1,2009-12-04T10:40:00Z,27.1690,-82.9260,17.64,1111122 
COMPS,ioos:station:USF.COMPS:C10:1,2009-12-04T11:00:00Z,27.1690,-82.9260,17.63,1111122 
COMPS,ioos:station:USF.COMPS:C10:1,2009-12-04T11:20:00Z,27.1690,-82.9260,17.61,1111122 
COMPS,ioos:station:USF.COMPS:C10:1,2009-12-04T11:40:00Z,27.1690,-82.9260,17.83,1111122 
COMPS,ioos:station:USF.COMPS:C10:1,2009-12-04T12:00:00Z,27.1690,-82.9260,17.78,1111122 
COMPS,ioos:station:USF.COMPS:C10:1,2009-12-04T12:20:00Z,27.1690,-82.9260,17.91,1111122 
COMPS,ioos:station:USF.COMPS:C10:1,2009-12-04T12:40:00Z,27.1690,-82.9260,17.73,1111122 
COMPS,ioos:station:USF.COMPS:C10:1,2009-12-04T13:00:00Z,27.1690,-82.9260,17.64,1111122 
COMPS,ioos:station:USF.COMPS:C10:1,2009-12-04T13:20:00Z,27.1690,-82.9260,17.53,1111122 
COMPS,ioos:station:USF.COMPS:C10:1,2009-12-04T13:40:00Z,27.1690,-82.9260,17.48,1111122 
COMPS,ioos:station:USF.COMPS:C10:1,2009-12-04T14:00:00Z,27.1690,-82.9260,17.45,1111122 
COMPS,ioos:station:USF.COMPS:C10:1,2009-12-04T14:20:00Z,27.1690,-82.9260,17.54,1111122 
COMPS,ioos:station:USF.COMPS:C10:1,2009-12-04T14:40:00Z,27.1690,-82.9260,17.45,1111122 
COMPS,ioos:station:USF.COMPS:C10:1,2009-12-04T15:00:00Z,27.1690,-82.9260,17.16,1111122 
COMPS,ioos:station:USF.COMPS:C10:1,2009-12-04T15:20:00Z,27.1690,-82.9260,17.18,1111122 
COMPS,ioos:station:USF.COMPS:C10:1,2009-12-04T15:40:00Z,27.1690,-82.9260,17.22,1111122 
COMPS,ioos:station:USF.COMPS:C10:1,2009-12-04T16:00:00Z,27.1690,-82.9260,17.19,1111122 
COMPS,ioos:station:USF.COMPS:C10:1,2009-12-04T16:20:00Z,27.1690,-82.9260,17.28,1111122 
COMPS,ioos:station:USF.COMPS:C10:1,2009-12-04T16:40:00Z,27.1690,-82.9260,16.89,1111122 
COMPS,ioos:station:USF.COMPS:C10:1,2009-12-04T17:00:00Z,27.1690,-82.9260,16.33,1111122 
COMPS,ioos:station:USF.COMPS:C10:1,2009-12-04T17:20:00Z,27.1690,-82.9260,16.02,1111122 
COMPS,ioos:station:USF.COMPS:C10:1,2009-12-04T17:40:00Z,27.1690,-82.9260,16.09,1111122 
COMPS,ioos:station:USF.COMPS:C10:1,2009-12-04T18:00:00Z,27.1690,-82.9260,15.92,1111122 
COMPS,ioos:station:USF.COMPS:C10:1,2009-12-04T18:20:00Z,27.1690,-82.9260,15.82,1111122 
COMPS,ioos:station:USF.COMPS:C10:1,2009-12-04T18:40:00Z,27.1690,-82.9260,15.87,1111122 
COMPS,ioos:station:USF.COMPS:C10:1,2009-12-04T19:00:00Z,27.1690,-82.9260,16.03,1111122 
COMPS,ioos:station:USF.COMPS:C10:1,2009-12-04T19:20:00Z,27.1690,-82.9260,16.19,1111122 
COMPS,ioos:station:USF.COMPS:C10:1,2009-12-04T19:40:00Z,27.1690,-82.9260,16.05,1111122 
COMPS,ioos:station:USF.COMPS:C10:1,2009-12-04T20:00:00Z,27.1690,-82.9260,15.91,1111122 
COMPS,ioos:station:USF.COMPS:C10:1,2009-12-04T20:20:00Z,27.1690,-82.9260,15.67,1111122 
COMPS,ioos:station:USF.COMPS:C10:1,2009-12-04T20:40:00Z,27.1690,-82.9260,15.69,1111122 
COMPS,ioos:station:USF.COMPS:C10:1,2009-12-04T21:00:00Z,27.1690,-82.9260,15.33,1111122 
COMPS,ioos:station:USF.COMPS:C10:1,2009-12-04T21:20:00Z,27.1690,-82.9260,15.3,1111122 
COMPS,ioos:station:USF.COMPS:C10:1,2009-12-04T21:40:00Z,27.1690,-82.9260,15.23,1111122 
COMPS,ioos:station:USF.COMPS:C10:1,2009-12-04T22:00:00Z,27.1690,-82.9260,15.41,1111122 
COMPS,ioos:station:USF.COMPS:C10:1,2009-12-04T22:20:00Z,27.1690,-82.9260,15.33,1111122 
COMPS,ioos:station:USF.COMPS:C10:1,2009-12-04T22:40:00Z,27.1690,-82.9260,15.36,1111122 
COMPS,ioos:station:USF.COMPS:C10:1,2009-12-04T23:00:00Z,27.1690,-82.9260,15.45,1111122 
COMPS,ioos:station:USF.COMPS:C10:1,2009-12-04T23:20:00Z,27.1690,-82.9260,15.19,1111122 
COMPS,ioos:station:USF.COMPS:C10:1,2009-12-04T23:40:00Z,27.1690,-82.9260,15.15,1111122 
COMPS,ioos:station:USF.COMPS:C10:1,2009-12-05T00:00:00Z,27.1690,-82.9260,15.19,1111122 
COMPS,ioos:station:USF.COMPS:C10:1,2009-12-05T00:20:00Z,27.1690,-82.9260,15.43,1111122 
COMPS,ioos:station:USF.COMPS:C10:1,2009-12-05T00:40:00Z,27.1690,-82.9260,15.56,1111122 
COMPS,ioos:station:USF.COMPS:C10:1,2009-12-05T01:00:00Z,27.1690,-82.9260,15.71,1111122 
COMPS,ioos:station:USF.COMPS:C10:1,2009-12-05T01:20:00Z,27.1690,-82.9260,15.46,1111122 
COMPS,ioos:station:USF.COMPS:C10:1,2009-12-05T01:40:00Z,27.1690,-82.9260,15.41,1111122 
COMPS,ioos:station:USF.COMPS:C10:1,2009-12-05T02:00:00Z,27.1690,-82.9260,15.41,1111122 
COMPS,ioos:station:USF.COMPS:C10:1,2009-12-05T02:20:00Z,27.1690,-82.9260,15.06,1111122 
COMPS,ioos:station:USF.COMPS:C10:1,2009-12-05T02:40:00Z,27.1690,-82.9260,15.31,1111122 
COMPS,ioos:station:USF.COMPS:C10:1,2009-12-05T03:00:00Z,27.1690,-82.9260,15.23,1111122 
COMPS,ioos:station:USF.COMPS:C10:1,2009-12-05T03:20:00Z,27.1690,-82.9260,15.24,1111122 
COMPS,ioos:station:USF.COMPS:C10:1,2009-12-05T03:40:00Z,27.1690,-82.9260,15.35,1111122 
COMPS,ioos:station:USF.COMPS:C10:1,2009-12-05T04:00:00Z,27.1690,-82.9260,15.61,1111122 
COMPS,ioos:station:USF.COMPS:C10:1,2009-12-05T04:20:00Z,27.1690,-82.9260,15.31,1111122 
COMPS,ioos:station:USF.COMPS:C10:1,2009-12-05T04:40:00Z,27.1690,-82.9260,15.33,1111122 
COMPS,ioos:station:USF.COMPS:C10:1,2009-12-05T05:00:00Z,27.1690,-82.9260,15.64,1111122 
COMPS,ioos:station:USF.COMPS:C10:1,2009-12-05T05:20:00Z,27.1690,-82.9260,15.6,1111122 
COMPS,ioos:station:USF.COMPS:C10:1,2009-12-05T05:40:00Z,27.1690,-82.9260,15.67,1111122 
COMPS,ioos:station:USF.COMPS:C10:1,2009-12-05T06:00:00Z,27.1690,-82.9260,15.87,1111122 
COMPS,ioos:station:USF.COMPS:C10:1,2009-12-05T06:20:00Z,27.1690,-82.9260,15.92,1111122 
COMPS,ioos:station:USF.COMPS:C10:1,2009-12-05T06:40:00Z,27.1690,-82.9260,15.95,1111122 
COMPS,ioos:station:USF.COMPS:C10:1,2009-12-05T07:00:00Z,27.1690,-82.9260,16.21,1111122 
COMPS,ioos:station:USF.COMPS:C10:1,2009-12-05T07:20:00Z,27.1690,-82.9260,16.25,1111122 
COMPS,ioos:station:USF.COMPS:C10:1,2009-12-05T07:40:00Z,27.1690,-82.9260,16.2,1111122 